Location: Bouchavesnes-Bergen
(49.9859°N, 2.9203°E)
Time: 21:25:28
(UTC+00:00)

BlueWalker 3 - Visible Passes

Search period start: 02 February 2023 00:00
Search period end: 12 February 2023 00:00
Orbit: 499 x 517 km, 53.2° (Epoch: 01 February)

Date Brightness Start Highest point End Pass type
(mag) Time Alt. Az. Time Alt. Az. Time Alt. Az.
02 Feb 2.3 18:47:02 10° WNW 18:50:50 51° N 18:51:11 49° NNE visible
02 Feb 5.3 20:25:49 10° WNW 20:25:59 11° WNW 20:25:59 11° WNW visible
03 Feb 2.3 18:28:05 10° WNW 18:31:54 51° N 18:33:03 37° NE visible
03 Feb 4.8 20:06:52 10° WNW 20:07:51 17° WNW 20:07:51 17° WNW visible
04 Feb 2.3 18:09:08 10° WNW 18:12:57 51° N 18:14:55 25° ENE visible
04 Feb 4.0 19:47:54 10° WNW 19:49:43 26° WNW 19:49:43 26° WNW visible
05 Feb 2.3 17:50:11 10° WNW 17:54:00 51° N 17:56:49 17° ENE visible
05 Feb 3.1 19:28:56 10° WNW 19:31:37 42° WNW 19:31:37 42° WNW visible
06 Feb 2.3 17:31:13 10° WNW 17:35:01 52° N 17:38:44 11° E visible
06 Feb 2.0 19:09:58 10° WNW 19:13:32 74° W 19:13:32 74° W visible
07 Feb 1.9 18:50:58 10° WNW 18:54:52 83° SSW 18:55:31 60° SE visible
07 Feb 5.3 20:30:05 10° W 20:30:19 11° W 20:30:19 11° W visible
08 Feb 1.9 18:31:59 10° WNW 18:35:52 81° SSW 18:37:33 33° ESE visible
08 Feb 4.8 20:11:09 10° W 20:12:22 16° WSW 20:12:22 16° WSW visible
09 Feb 2.0 18:12:58 10° WNW 18:16:52 78° SSW 18:19:42 18° ESE visible
09 Feb 4.3 19:52:11 10° W 19:54:31 19° SW 19:54:31 19° SW visible
10 Feb 2.1 17:53:58 10° WNW 17:57:50 76° SSW 18:01:45 10° ESE visible
10 Feb 4.2 19:33:14 10° W 19:36:00 19° SW 19:36:47 18° SSW visible
11 Feb 2.2 17:34:57 10° WNW 17:38:49 73° SSW 17:42:42 10° ESE visible
11 Feb 4.5 19:14:16 10° W 19:16:57 18° SW 19:19:12 12° S visible
